STARLINK-38080, 69989

Orbit data source: Space-Track

STARLINK-38080, 69989 is a payload satellite owned by SpaceX/Seattle (US) in SSO that was launched on Sat, 11 Jul 2026 UTC via an FALCON 9 launch vehicle from the Air Force Western Test Range (AFWTR). Payload-class satellites include a variety of spacecraft equipped with specific instruments for various scientific and technological missions. These include communications satellites like Starlink; space stations such as the ISS; scientific satellites like the Hubble; Earth observation satellites from companies like Planet Labs, Umbra, and HawkEye 360; GPS; miniature CubeSats for education and research; and military/defense satellites.

Loading next visibility...
Identifier
69989, 2026-159Q
Orbit
SSO
Country
Flag of USUS
Related business
Manufacturer
SpaceX/Seattle
Mission
Operational spacecraft
Bus & Motor
STARLINK V2MO, Unknown motor
Mass
575 kg wet, ~530 kg dry
Launch date (UTC)
2026-07-11 (1 month ago)
Launch vehicle
FALCON 9
Launch site
Air Force Western Test Range (AFWTR)
Object type
Payload
Rocket body
Debris
Shape & HBR
BOX + PAN, 17.7 m
Radar Cross Section
Large (>1 m²)

Expand to show TLE details & history
Last TLE update: 1 day ago

TLE from 1 day ago
0 STARLINK-38080
1 69989U 26159Q   26228.09748895  .00171706  00000-0  11286-2 0  9996
2 69989  97.2833  68.4674 0001231 106.6402 253.4998 15.75198711  6894
Epoch: 2026-08-16T02:20Z
TLE epoch observation values (Epoch: 2026-08-16T02:20:23.045Z)
Latitude
-0.00006°
Longitude
68.87248°
Altitude
347.469 km
Speed
7.7 km/s
True Right ascension
04h 33m 52s
True Declination
0° 00' 00"
Sunlit
Object was in daylight at epoch
Visualization orbit readout
Latitude
Unknown
Longitude
Unknown
Altitude
Unknown
Speed
Unknown
Apparent Right ascension
Unknown
Apparent Declination
Unknown
Sunlit
N/A
Visualization observer readout
Local Sidereal Time
16:45:32
Azimuth
Unknown
Elevation
Unknown
Doppler factor
Unknown
Orbital elements
Apogee altitude
341.78 km
Perigee altitude
340.126 km
Semi-major axis
6,719.09 km
Eccentricity
0.00012
Inclination
97.2833°
RAAN
68.4674°
Arg. of periapsis
106.6402°
True anomaly
253.48628°
Mean anomaly
253.4998°
Eccentric anomaly
253.49304°
Mean motion
3.94074 °/min
Orbital period
91.35 mins
BSTAR
0.0011286
Loading maneuver chart data...
Computing Atmospheric mass density...
Loading historical data...
Loading historical data...
Loading historical data...
Loading historical data...
Loading historical data...
Loading historical data...
Loading historical data...

Documentation

Showing up to 5 results
|